TITAN 3C TRANSTAGE DEB, 1671

Orbit data source: Space-Track

TITAN 3C TRANSTAGE DEB, 1671 is space debris in LEO originally from a launch on Fri, 15 Oct 1965 UTC launched from the Air Force Eastern Test Range (AFETR). Debris objects in space refer to the collection of defunct objects orbiting the Earth. Examples of debris include non-operational satellites, rocket bodies, and fragments generated from explosions, collisions, or faulty payload assembly.

Loading next visibility...
Identifier
1671, 1965-082AJ
Orbit
LEO
Country
Flag of USUS
Related business
Manufacturer
Unknown
Mission
Spacecraft
Bus & Motor
Unknown
Mass
Unknown
Launch date (UTC)
1965-10-15 (60 years ago)
Launch vehicle
Unknown
Launch site
Air Force Eastern Test Range (AFETR)
Object type
Payload
Rocket body
Debris
Shape & HBR
Unknown shape, 0.3 m
Radar Cross Section
Medium (>0.1 m² and <1 m²)

Expand to show TLE details & history
Last TLE update: 22 hours ago

TLE from 22 hours ago
0 TITAN 3C TRANSTAGE DEB
1 01671U 65082AJ  25291.95271617  .00000982  00000-0  21774-3 0  9996
2 01671  32.1628  20.5215 0052474 245.1413 114.3768 14.53752087151263
Epoch: 2025-10-18T22:51Z
TLE epoch observation values (Epoch: 2025-10-18T22:51:54.677Z)
Latitude
0.00003°
Longitude
9.86737°
Altitude
727.595 km
Speed
7.485 km/s
True Right ascension
01h 22m 05s
True Declination
0° 00' 00"
Sunlit
Object was in full shadow at epoch
Visualization orbit readout
Latitude
Unknown
Longitude
Unknown
Altitude
Unknown
Speed
Unknown
Apparent Right ascension
Unknown
Apparent Declination
Unknown
Sunlit
N/A
Visualization observer readout
Local Sidereal Time
16:05:48
Azimuth
Unknown
Elevation
Unknown
Doppler factor
Unknown
Orbital elements
Apogee altitude
754.228 km
Perigee altitude
679.766 km
Semi-major axis
7,095.134 km
Eccentricity
0.00525
Inclination
32.1628°
RAAN
20.5215°
Arg. of periapsis
245.1413°
True anomaly
114.92301°
Mean anomaly
114.3768°
Eccentric anomaly
114.65006°
Mean motion
3.63164 °/min
Orbital period
99.13 mins
BSTAR
0.00021774

Documentation

Showing up to 5 results
|